• In Czech Republic
  • List of Countries
  • For 7 days
  • Water Temperature
  • Satellite Maps
  • Weather Map
  • Weather Widgets
  • user-avatar
    Login

    Hourly Weather Nottingham

    Today, 19 October, Thursday

    Time Temperature Precipitation Wind Pressure Humidity
    00:00 +13°C° 0 mm 1 mps 750 mmHg 96%
    01:00 +13°C° 0 mm 1 mps 750 mmHg 96%
    02:00 +13°C° 0 mm 2 mps 750 mmHg 96%
    03:00 +13°C° 0 mm 2 mps 750 mmHg 96%
    04:00 +13°C° 0 mm 2 mps 749 mmHg 96%
    05:00 +12°C° 0 mm 2 mps 749 mmHg 96%
    06:00 +12°C° 0 mm 1 mps 749 mmHg 95%
    07:00 +12°C° 0.2 mm 2 mps 748 mmHg 95%
    08:00 +13°C° 0.2 mm 2 mps 748 mmHg 94%
    09:00 +12°C° 0.2 mm 3 mps 748 mmHg 93%
    10:00 +13°C° 1.4 mm 3 mps 747 mmHg 93%
    11:00 +14°C° 1.4 mm 3 mps 747 mmHg 92%
    12:00 +14°C° 1.4 mm 4 mps 746 mmHg 91%
    13:00 +15°C° 1.2 mm 4 mps 745 mmHg 90%
    14:00 +15°C° 1.2 mm 5 mps 745 mmHg 90%
    15:00 +15°C° 1.2 mm 5 mps 744 mmHg 89%
    16:00 +15°C° 0.3 mm 5 mps 743 mmHg 89%
    17:00 +14°C° 0.3 mm 5 mps 743 mmHg 89%
    18:00 +14°C° 0.3 mm 5 mps 743 mmHg 89%
    19:00 +14°C° 0.7 mm 6 mps 742 mmHg 88%
    20:00 +12°C° 0.7 mm 7 mps 742 mmHg 87%
    21:00 +12°C° 0.7 mm 7 mps 742 mmHg 86%
    22:00 +12°C° 0.2 mm 7 mps 741 mmHg 86%
    23:00 +12°C° 0.2 mm 7 mps 741 mmHg 86%

    Tomorrow, 20 October, Friday

    Time Temperature Precipitation Wind Pressure Humidity
    00:00 +13°C° 0.2 mm 6 mps 741 mmHg 86%
    01:00 +11°C° 0.1 mm 7 mps 741 mmHg 86%
    02:00 +11°C° 0.1 mm 7 mps 741 mmHg 86%
    03:00 +11°C° 0.1 mm 7 mps 741 mmHg 87%
    04:00 +11°C° 0.1 mm 8 mps 742 mmHg 86%
    05:00 +11°C° 0.1 mm 8 mps 742 mmHg 85%
    06:00 +11°C° 0.1 mm 8 mps 743 mmHg 84%
    07:00 +10°C° 0.1 mm 8 mps 744 mmHg 83%
    08:00 +10°C° 0.1 mm 8 mps 745 mmHg 83%
    09:00 +10°C° 0.1 mm 8 mps 746 mmHg 82%
    10:00 +10°C° 0 mm 8 mps 746 mmHg 79%
    11:00 +11°C° 0 mm 8 mps 747 mmHg 76%
    12:00 +11°C° 0 mm 8 mps 747 mmHg 73%
    13:00 +11°C° 0 mm 7 mps 748 mmHg 71%
    14:00 +11°C° 0 mm 7 mps 748 mmHg 69%
    15:00 +11°C° 0 mm 6 mps 748 mmHg 67%
    16:00 +12°C° 0 mm 5 mps 748 mmHg 70%
    17:00 +10°C° 0 mm 5 mps 748 mmHg 74%
    18:00 +11°C° 0 mm 4 mps 748 mmHg 77%
    19:00 +10°C° 0.5 mm 5 mps 748 mmHg 80%
    20:00 +10°C° 0.5 mm 6 mps 747 mmHg 83%
    21:00 +10°C° 0.5 mm 6 mps 747 mmHg 86%
    22:00 +11°C° 1.5 mm 7 mps 746 mmHg 87%
    23:00 +11°C° 1.5 mm 7 mps 745 mmHg 88%

    Day after tomorrow, 21 October, Saturday

    Time Temperature Precipitation Wind Pressure Humidity
    00:00 +12°C° 1.5 mm 8 mps 744 mmHg 89%
    01:00 +12°C° 0.5 mm 7 mps 743 mmHg 87%
    02:00 +12°C° 0.5 mm 7 mps 743 mmHg 85%
    03:00 +11°C° 0.5 mm 7 mps 742 mmHg 83%
    04:00 +11°C° 0 mm 7 mps 742 mmHg 82%
    05:00 +10°C° 0 mm 7 mps 742 mmHg 81%
    06:00 +10°C° 0 mm 8 mps 742 mmHg 80%
    07:00 +10°C° 0 mm 8 mps 741 mmHg 77%
    08:00 +11°C° 0 mm 9 mps 741 mmHg 74%
    09:00 +11°C° 0 mm 10 mps 741 mmHg 71%
    10:00 +12°C° 0.1 mm 11 mps 740 mmHg 69%
    11:00 +12°C° 0.1 mm 11 mps 740 mmHg 68%
    12:00 +12°C° 0.1 mm 11 mps 739 mmHg 67%
    13:00 +12°C° 0.4 mm 12 mps 739 mmHg 70%
    14:00 +12°C° 0.4 mm 12 mps 738 mmHg 73%
    15:00 +10°C° 0.4 mm 12 mps 738 mmHg 75%
    16:00 +11°C° 0.4 mm 11 mps 738 mmHg 77%
    17:00 +11°C° 0.4 mm 10 mps 739 mmHg 78%
    18:00 +11°C° 0.4 mm 9 mps 739 mmHg 79%
    19:00 +10°C° 0.1 mm 9 mps 740 mmHg 79%
    20:00 +10°C° 0.1 mm 9 mps 741 mmHg 79%
    21:00 +10°C° 0.1 mm 9 mps 742 mmHg 79%
    22:00 +8°C° 0.2 mm 9 mps 743 mmHg 79%
    23:00 +8°C° 0.2 mm 9 mps 744 mmHg 79%

    22 October, Sunday

    Time Temperature Precipitation Wind Pressure Humidity
    00:00 +8°C° 0.2 mm 9 mps 744 mmHg 79%
    01:00 +8°C° 0 mm 9 mps 745 mmHg 79%
    02:00 +7°C° 0 mm 8 mps 745 mmHg 78%
    03:00 +7°C° 0 mm 8 mps 745 mmHg 78%
    04:00 +7°C° 0.5 mm 8 mps 746 mmHg 80%
    05:00 +8°C° 0.5 mm 9 mps 746 mmHg 81%
    06:00 +8°C° 0.5 mm 9 mps 747 mmHg 83%
    07:00 +8°C° 0.1 mm 9 mps 747 mmHg 81%
    08:00 +8°C° 0.1 mm 9 mps 748 mmHg 80%
    09:00 +8°C° 0.1 mm 9 mps 749 mmHg 78%
    10:00 +8°C° 0 mm 9 mps 750 mmHg 76%
    11:00 +10°C° 0 mm 9 mps 750 mmHg 74%
    12:00 +10°C° 0 mm 9 mps 751 mmHg 72%
    13:00 +10°C° 0 mm 9 mps 751 mmHg 71%
    14:00 +10°C° 0 mm 9 mps 752 mmHg 71%
    15:00 +10°C° 0 mm 8 mps 752 mmHg 71%
    16:00 +10°C° 0 mm 8 mps 753 mmHg 72%
    17:00 +10°C° 0 mm 7 mps 753 mmHg 73%
    18:00 +10°C° 0 mm 7 mps 754 mmHg 73%
    19:00 +9°C° 0 mm 6 mps 755 mmHg 75%
    20:00 +9°C° 0 mm 6 mps 755 mmHg 76%
    21:00 +9°C° 0 mm 5 mps 755 mmHg 78%
    22:00 +9°C° 0 mm 5 mps 756 mmHg 80%
    23:00 +10°C° 0 mm 4 mps 756 mmHg 82%

    23 October, Monday

    Time Temperature Precipitation Wind Pressure Humidity
    00:00 +10°C° 0 mm 4 mps 756 mmHg 84%
    01:00 +10°C° 0.1 mm 4 mps 756 mmHg 86%
    02:00 +10°C° 0.1 mm 5 mps 756 mmHg 88%
    03:00 +10°C° 0.1 mm 5 mps 755 mmHg 89%
    04:00 +12°C° 0.1 mm 5 mps 755 mmHg 90%
    05:00 +12°C° 0.1 mm 5 mps 755 mmHg 91%
    06:00 +13°C° 0.1 mm 5 mps 755 mmHg 91%
    07:00 +13°C° 0 mm 5 mps 755 mmHg 91%
    08:00 +14°C° 0 mm 5 mps 755 mmHg 90%
    09:00 +14°C° 0 mm 5 mps 755 mmHg 90%
    10:00 +15°C° 0.1 mm 6 mps 755 mmHg 89%
    11:00 +15°C° 0.1 mm 6 mps 755 mmHg 87%
    12:00 +16°C° 0.1 mm 6 mps 755 mmHg 86%
    13:00 +16°C° 0.1 mm 6 mps 755 mmHg 86%
    14:00 +16°C° 0.1 mm 6 mps 755 mmHg 86%
    15:00 +16°C° 0.1 mm 6 mps 755 mmHg 86%
    16:00 +16°C° 0 mm 6 mps 755 mmHg 87%
    17:00 +16°C° 0 mm 6 mps 755 mmHg 88%
    18:00 +16°C° 0 mm 6 mps 755 mmHg 89%
    19:00 +15°C° 0 mm 5 mps 756 mmHg 89%
    20:00 +15°C° 0 mm 5 mps 756 mmHg 88%
    21:00 +15°C° 0 mm 5 mps 756 mmHg 87%
    22:00 +15°C° 0 mm 5 mps 756 mmHg 89%
    23:00 +15°C° 0 mm 5 mps 756 mmHg 91%

    24 October, Tuesday

    Time Temperature Precipitation Wind Pressure Humidity
    00:00 +14°C° 0 mm 4 mps 757 mmHg 93%
    01:00 +15°C° 0 mm 5 mps 757 mmHg 92%
    02:00 +15°C° 0 mm 5 mps 756 mmHg 91%
    03:00 +16°C° 0 mm 6 mps 756 mmHg 90%
    04:00 +16°C° 0 mm 6 mps 756 mmHg 90%
    05:00 +15°C° 0 mm 6 mps 756 mmHg 89%
    06:00 +15°C° 0 mm 7 mps 757 mmHg 89%
    07:00 +15°C° 0 mm 7 mps 757 mmHg 88%
    08:00 +16°C° 0 mm 7 mps 757 mmHg 86%
    09:00 +16°C° 0 mm 7 mps 757 mmHg 85%
    10:00 +16°C° 0 mm 7 mps 757 mmHg 83%
    11:00 +17°C° 0 mm 8 mps 757 mmHg 81%
    12:00 +17°C° 0 mm 8 mps 757 mmHg 79%
    13:00 +17°C° 0 mm 8 mps 757 mmHg 79%
    14:00 +17°C° 0 mm 7 mps 757 mmHg 79%
    15:00 +16°C° 0 mm 7 mps 757 mmHg 78%
    16:00 +16°C° 0 mm 7 mps 757 mmHg 80%
    17:00 +15°C° 0 mm 7 mps 757 mmHg 82%
    18:00 +15°C° 0 mm 6 mps 758 mmHg 83%
    19:00 +15°C° 0 mm 6 mps 758 mmHg 84%
    20:00 +15°C° 0 mm 6 mps 758 mmHg 85%
    21:00 +14°C° 0 mm 6 mps 759 mmHg 86%
    22:00 +14°C° 0 mm 5 mps 759 mmHg 88%
    23:00 +14°C° 0 mm 5 mps 759 mmHg 89%
    Show more